Jacksonville Craig, FL

7:29 AM EDT on August 18, 2017 (GMT -0400)
Craig Municipal

Weather History for KCRG - April, 2012

Change the Weather History Date:

Thursday, April 5, 2012

  Actual Average Record
Temperature  
Mean Temperature 78 °F -  
Max Temperature 89 °F 75 °F 91 °F (2017)
Min Temperature 66 °F 55 °F 46 °F (2004)
Cooling Degree Days 12    
Growing Degree Days 28 (Base 50)    
Moisture  
Dew Point 59 °F    
Average Humidity 57    
Maximum Humidity 79    
Minimum Humidity 31    
Precipitation  
Precipitation 0.00 in - - ()
Sea Level Pressure  
Sea Level Pressure 29.75 in    
Wind  
Wind Speed 6 mph (WSW)    
Max Wind Speed 20 mph    
Max Gust Speed 28 mph    
Visibility 10 miles    
Events      
Averages and records for this station are not official NWS values.
T = Trace of Precipitation, MM = Missing Value Source: NWS Daily Summary

Daily Weather History Graph

Daily Weather History Graph

Search for Another Location

Airport or City:

Trip Planner

Search our weather history database for the weather conditions in past years. The results will help you decide how hot, cold, wet, or windy it might be!

Date:

Astronomy

Apr. 05, 2012 Rise Set
Actual Time 7:09 AM EDT 7:47 PM EDT
Civil Twilight 6:45 AM EDT 8:12 PM EDT
Nautical Twilight 6:17 AM EDT 8:40 PM EDT
Astronomical Twilight 5:48 AM EDT 9:09 PM EDT
Moon 6:52 PM EDT (4/5) 6:01 AM EDT (4/5)
Length of Visible Light 13h 26m
Length of Day
12h 37m
Waxing Gibbous, 98% of the Moon is Illuminated
Apr 5
Waxing Gibbous
Apr 6
Full
Apr 13
Last Quarter
Apr 21
New
Apr 29
First Quarter

Hourly Weather History & Observations

Time (EDT) Temp. Heat Index Dew Point Humidity Pressure Visibility Wind Dir Wind Speed Gust Speed Precip Events Conditions
12:53 AM 73.0 °F - 64.9 °F 76% 29.80 in 10.0 mi SW 3.5 mph - N/A   Clear
1:53 AM 72.0 °F - 63.0 °F 73% 29.79 in 10.0 mi SW 4.6 mph - N/A   Clear
2:53 AM 70.0 °F - 61.0 °F 73% 29.77 in 9.0 mi SSW 3.5 mph - N/A   Partly Cloudy
3:53 AM 70.0 °F - 61.0 °F 73% 29.76 in 10.0 mi NW 3.5 mph - N/A   Scattered Clouds
4:53 AM 70.0 °F - 60.1 °F 71% 29.75 in 10.0 mi SSW 4.6 mph - N/A   Clear
5:53 AM 66.9 °F - 60.1 °F 79% 29.75 in 10.0 mi SSW 3.5 mph - N/A   Clear
6:53 AM 70.0 °F - 61.0 °F 73% 29.78 in 10.0 mi West 3.5 mph - N/A   Overcast
7:53 AM 69.1 °F - 62.1 °F 78% 29.78 in 10.0 mi Calm Calm - N/A   Scattered Clouds
8:53 AM 72.0 °F - 63.0 °F 73% 29.79 in 10.0 mi Calm Calm - N/A   Partly Cloudy
9:53 AM 75.0 °F - 62.1 °F 64% 29.80 in 10.0 mi WSW 6.9 mph - N/A   Clear
10:53 AM 77.0 °F - 59.0 °F 54% 29.79 in 10.0 mi WSW 5.8 mph - N/A   Clear
11:53 AM 80.1 °F 80.7 °F 59.0 °F 48% 29.80 in 10.0 mi West 9.2 mph - N/A   Clear
12:53 PM 82.0 °F 81.7 °F 57.0 °F 42% 29.77 in 10.0 mi West 9.2 mph 19.6 mph N/A   Clear
1:53 PM 84.0 °F 83.0 °F 55.9 °F 38% 29.75 in 10.0 mi WNW 9.2 mph 23.0 mph N/A   Clear
2:53 PM 86.0 °F 84.7 °F 55.9 °F 36% 29.72 in 10.0 mi WSW 6.9 mph - N/A   Clear
3:53 PM 87.1 °F 84.9 °F 53.1 °F 31% 29.71 in 10.0 mi West 12.7 mph 24.2 mph N/A   Clear
4:53 PM 89.1 °F 87.1 °F 55.0 °F 31% 29.70 in 10.0 mi West 15.0 mph 21.9 mph N/A   Partly Cloudy
5:53 PM 86.0 °F 84.9 °F 57.0 °F 37% 29.69 in 10.0 mi WSW 19.6 mph 24.2 mph N/A   Scattered Clouds
6:53 PM 81.0 °F 81.0 °F 57.0 °F 44% 29.71 in 10.0 mi West 15.0 mph 27.6 mph N/A   Clear
7:53 PM 79.0 °F - 55.0 °F 44% 29.70 in 10.0 mi West 8.1 mph - N/A   Clear
8:53 PM 77.0 °F - 57.0 °F 50% 29.73 in 10.0 mi WSW 11.5 mph - N/A   Clear
9:53 PM 75.0 °F - 57.9 °F 55% 29.74 in 10.0 mi WSW 5.8 mph - N/A   Clear
10:53 PM 73.0 °F - 60.1 °F 64% 29.74 in 10.0 mi SW 10.4 mph - N/A   Clear
11:53 PM 73.0 °F - 59.0 °F 61% 29.75 in 10.0 mi WSW 12.7 mph - N/A   Scattered Clouds